Oak Ridge, TN

4:30 PM EST on November 22, 2017 (GMT -0500)
Oak Ridge

Weather History for KOQT - November, 2011

Change the Weather History Date:

Friday, November 25, 2011

  Actual Average (KTYS) Record (KTYS)
Temperature  
Mean Temperature 48 °F -  
Max Temperature 62 °F 57 °F 74 °F (1908)
Min Temperature 33 °F 36 °F 5 °F (1950)
Degree Days  
Heating Degree Days 18    
Moisture  
Dew Point 36 °F    
Average Humidity 81    
Maximum Humidity 100    
Minimum Humidity 35    
Precipitation  
Precipitation 0.00 in - - ()
Sea Level Pressure  
Sea Level Pressure 30.35 in    
Wind  
Wind Speed 0 mph (West)    
Max Wind Speed 7 mph    
Max Gust Speed -    
Visibility 6 miles    
Events Fog    
Averages and records for this station are not official NWS values.
T = Trace of Precipitation, MM = Missing Value Source: NWS Daily Summary

Daily Weather History Graph

Daily Weather History Graph

Search for Another Location

Airport or City:

Trip Planner

Search our weather history database for the weather conditions in past years. The results will help you decide how hot, cold, wet, or windy it might be!

Date:

Astronomy

Nov. 25, 2011 Rise Set
Actual Time 7:23 AM EST 5:24 PM EST
Civil Twilight 6:55 AM EST 5:52 PM EST
Nautical Twilight 6:23 AM EST 6:23 PM EST
Astronomical Twilight 5:53 AM EST 6:54 PM EST
Moon 7:48 AM EST (11/25) 5:52 PM EST (11/25)
Length of Visible Light 10h 56m
Length of Day
10h 01m
New Moon, 0% of the Moon is Illuminated
Nov 25
New Moon
Dec 2
First Quarter
Dec 10
Full
Dec 17
Last Quarter
Dec 24
New

Hourly Weather History & Observations

Time (EST) Temp. Dew Point Humidity Pressure Visibility Wind Dir Wind Speed Gust Speed Precip Events Conditions
12:44 AM 37.4 °F 33.8 °F 87% 30.36 in 7.0 mi Calm Calm - N/A   Scattered Clouds
12:53 AM 36.0 °F 34.0 °F 93% 30.38 in 5.0 mi Calm Calm - N/A   Mostly Cloudy
1:09 AM 35.6 °F 33.8 °F 93% 30.36 in 1.5 mi Calm Calm - N/A   Overcast
1:37 AM 35.6 °F 33.8 °F 93% 30.36 in 0.5 mi Calm Calm - N/A Fog Fog
1:53 AM 35.1 °F 34.0 °F 96% 30.38 in 0.2 mi Calm Calm - N/A Fog Fog
2:53 AM 34.0 °F 34.0 °F 100% 30.39 in 0.2 mi Calm Calm - N/A Fog Fog
3:53 AM 35.1 °F 34.0 °F 96% 30.38 in 0.2 mi Calm Calm - N/A Fog Fog
4:53 AM 35.1 °F 34.0 °F 96% 30.38 in 0.2 mi Calm Calm - N/A Fog Fog
5:53 AM 35.1 °F 34.0 °F 96% 30.40 in 0.2 mi Calm Calm - N/A Fog Fog
6:53 AM 34.0 °F 33.1 °F 96% 30.41 in 0.2 mi Calm Calm - N/A Fog Fog
7:53 AM 33.1 °F 33.1 °F 100% 30.43 in 0.2 mi Calm Calm - N/A Fog Fog
8:53 AM 35.1 °F 34.0 °F 96% 30.43 in 0.2 mi Calm Calm - N/A Fog Fog
9:53 AM 37.9 °F 37.9 °F 100% 30.44 in 0.2 mi Calm Calm - N/A Fog Fog
10:25 AM 42.8 °F 41.0 °F 93% 30.40 in 2.5 mi Calm Calm - N/A   Mostly Cloudy
10:32 AM 42.8 °F 41.0 °F 93% 30.40 in 9.0 mi Calm Calm - N/A   Mostly Cloudy
10:40 AM 42.8 °F 41.0 °F 93% 30.40 in 10.0 mi Calm Calm - N/A   Scattered Clouds
10:53 AM 48.0 °F 42.1 °F 80% 30.42 in 10.0 mi Calm Calm - N/A   Clear
11:53 AM 55.0 °F 36.0 °F 49% 30.38 in 10.0 mi Variable 6.9 mph - N/A   Clear
12:53 PM 57.9 °F 35.1 °F 42% 30.35 in 10.0 mi Variable 5.8 mph - N/A   Clear
2:53 PM 62.1 °F 34.0 °F 35% 30.28 in 10.0 mi Calm Calm - N/A   Clear
3:53 PM 62.1 °F 35.1 °F 37% 30.27 in 10.0 mi Calm Calm - N/A   Clear
4:53 PM 60.1 °F 35.1 °F 39% 30.27 in 10.0 mi West 3.5 mph - N/A   Clear
5:53 PM 52.0 °F 37.9 °F 59% 30.27 in 10.0 mi Calm Calm - N/A   Clear
6:53 PM 48.0 °F 37.9 °F 68% 30.28 in 10.0 mi Calm Calm - N/A   Clear
7:53 PM 45.0 °F 37.9 °F 76% 30.29 in 10.0 mi Calm Calm - N/A   Clear
8:53 PM 43.0 °F 37.0 °F 80% 30.28 in 10.0 mi Calm Calm - N/A   Clear
9:53 PM 42.1 °F 37.0 °F 82% 30.29 in 10.0 mi Calm Calm - N/A   Clear
10:53 PM 39.9 °F 36.0 °F 86% 30.29 in 10.0 mi Calm Calm - N/A   Clear
11:53 PM 39.9 °F 36.0 °F 86% 30.28 in 10.0 mi Calm Calm - N/A   Clear